Location: Springfield
(37.2150°N, 93.2980°W)
Time: 23:49:04
(UTC-05:00)

SPOT 5 - Pass Details

Date: 19 April 2018
Orbit: 623 x 815 km, 98.3° (Epoch: 20 September)

Event Time Altitude Azimuth Distance (km) Brightness Sun altitude
Exits shadow 23:09:49 31° 322° (NW) 1,192 4.4 -33.5°
Drops below altitude 10° 23:12:17 10° 337° (NNW) 2,089 6.0 -33.7°
Sets 23:14:30 0° 342° (NNW) 2,981 7.0 -34.0°
